| time (UTC) | temp C | wind direction | speed KPH | gust KPH | rain 1hr cm | rain 24hr cm | rain mn cm | humidity % | barometer mb |
| 20260901155054 | 21 | 48 | 0.0 | 6.4 | 0.00 | 0.15 | 0.00 | 83 | 1023.8 |
| 20260901154603 | 21 | 48 | 3.2 | 6.4 | 0.00 | 0.15 | 0.00 | 83 | 1023.8 |
| 20260901154054 | 21 | 51 | 1.6 | 6.4 | 0.00 | 0.15 | 0.00 | 84 | 1023.6 |
| 20260901153557 | 21 | 51 | 1.6 | 6.4 | 0.00 | 0.15 | 0.00 | 85 | 1023.5 |
| 20260901153120 | 21 | 52 | 1.6 | 8.0 | 0.00 | 0.15 | 0.00 | 86 | 1023.7 |
| 20260901152554 | 20 | 47 | 3.2 | 8.0 | 0.00 | 0.15 | 0.00 | 86 | 1023.5 |
| 20260901152055 | 20 | 47 | 3.2 | 8.0 | 0.00 | 0.15 | 0.00 | 89 | 1023.5 |
| 20260901151607 | 20 | 46 | 1.6 | 6.4 | 0.00 | 0.15 | 0.00 | 89 | 1023.5 |
| 20260901151054 | 20 | 46 | 1.6 | 8.0 | 0.00 | 0.15 | 0.00 | 90 | 1023.4 |
| 20260901150555 | 20 | 46 | 3.2 | 8.0 | 0.00 | 0.15 | 0.00 | 91 | 1023.4 |
| 20260901150126 | 19 | 44 | 1.6 | 4.8 | 0.00 | 0.15 | 0.00 | 92 | 1023.4 |
| 20260901145555 | 19 | 0 | 1.6 | 4.8 | 0.00 | 0.28 | 0.00 | 92 | 1023.4 |
| 20260901145056 | 18 | 44 | 0.0 | 4.8 | 0.00 | 0.28 | 0.00 | 92 | 1023.2 |
| 20260901144626 | 18 | 44 | 1.6 | 4.8 | 0.00 | 0.28 | 0.00 | 92 | 1023.2 |
| 20260901144055 | 18 | 44 | 1.6 | 4.8 | 0.00 | 0.28 | 0.00 | 92 | 1023.1 |
| 20260901143554 | 18 | 44 | 1.6 | 4.8 | 0.00 | 0.28 | 0.00 | 93 | 1023.0 |
| 20260901143110 | 18 | 44 | 1.6 | 4.8 | 0.00 | 0.28 | 0.00 | 93 | 1023.0 |
| 20260901142557 | 18 | 44 | 1.6 | 4.8 | 0.00 | 0.28 | 0.00 | 93 | 1023.1 |
| 20260901142054 | 18 | 44 | 1.6 | 4.8 | 0.00 | 0.28 | 0.00 | 93 | 1023.1 |
| 20260901141603 | 18 | 0 | 0.0 | 4.8 | 0.00 | 0.28 | 0.00 | 93 | 1023.0 |
| 20260901141054 | 18 | 0 | 0.0 | 4.8 | 0.00 | 0.28 | 0.00 | 92 | 1023.1 |
| 20260901140557 | 18 | 0 | 0.0 | 3.2 | 0.00 | 0.28 | 0.00 | 93 | 1023.1 |
| 20260901140111 | 18 | 44 | 0.0 | 3.2 | 0.00 | 0.28 | 0.00 | 93 | 1023.0 |
| 20260901135555 | 18 | 44 | 0.0 | 3.2 | 0.00 | 0.30 | 0.00 | 93 | 1022.9 |
| 20260901135056 | 18 | 0 | 0.0 | 3.2 | 0.00 | 0.30 | 0.00 | 93 | 1022.9 |
| 20260901134623 | 17 | 0 | 0.0 | 1.6 | 0.00 | 0.30 | 0.00 | 93 | 1022.9 |
| 20260901134053 | 17 | 0 | 0.0 | 0.0 | 0.00 | 0.30 | 0.00 | 93 | 1022.9 |
| 20260901133554 | 17 | 0 | 0.0 | 0.0 | 0.00 | 0.30 | 0.00 | 93 | 1022.8 |
| 20260901133110 | 17 | 0 | 0.0 | 1.6 | 0.00 | 0.30 | 0.00 | 92 | 1022.7 |
| 20260901132557 | 17 | 0 | 0.0 | 1.6 | 0.00 | 0.30 | 0.00 | 93 | 1022.8 |
| 20260901132055 | 17 | 0 | 0.0 | 1.6 | 0.00 | 0.30 | 0.00 | 93 | 1022.7 |
| 20260901131629 | 17 | 44 | 0.0 | 1.6 | 0.00 | 0.30 | 0.00 | 93 | 1022.5 |
| 20260901131053 | 17 | 0 | 0.0 | 1.6 | 0.00 | 0.30 | 0.00 | 92 | 1022.5 |
| 20260901130556 | 17 | 0 | 0.0 | 1.6 | 0.00 | 0.30 | 0.00 | 92 | 1022.5 |
| 20260901130128 | 17 | 44 | 0.0 | 1.6 | 0.00 | 0.30 | 0.00 | 93 | 1022.5 |
| 20260901125554 | 17 | 0 | 0.0 | 0.0 | 0.00 | 0.30 | 0.00 | 93 | 1022.5 |
| 20260901125056 | 17 | 0 | 0.0 | 3.2 | 0.00 | 0.30 | 0.00 | 92 | 1022.3 |
| 20260901124600 | 17 | 0 | 0.0 | 3.2 | 0.00 | 0.30 | 0.00 | 93 | 1022.3 |
| 20260901124057 | 17 | 0 | 0.0 | 0.0 | 0.00 | 0.30 | 0.00 | 92 | 1022.3 |
| 20260901123554 | 17 | 0 | 0.0 | 4.8 | 0.00 | 0.30 | 0.00 | 92 | 1022.1 |
| 20260901123101 | 17 | 0 | 0.0 | 4.8 | 0.00 | 0.30 | 0.00 | 93 | 1022.1 |
| 20260901122600 | 17 | 44 | 3.2 | 4.8 | 0.00 | 0.30 | 0.00 | 93 | 1022.1 |
| 20260901122053 | 16 | 44 | 3.2 | 4.8 | 0.00 | 0.30 | 0.00 | 93 | 1022.1 |
| 20260901121605 | 16 | 44 | 3.2 | 4.8 | 0.00 | 0.30 | 0.00 | 93 | 1022.0 |
| 20260901121054 | 16 | 44 | 0.0 | 6.4 | 0.00 | 0.30 | 0.00 | 93 | 1022.1 |
| 20260901120554 | 16 | 44 | 3.2 | 6.4 | 0.00 | 0.30 | 0.00 | 93 | 1021.9 |
| 20260901120111 | 16 | 44 | 0.0 | 1.6 | 0.00 | 0.30 | 0.00 | 93 | 1021.8 |
| 20260901115553 | 16 | 0 | 0.0 | 3.2 | 0.00 | 0.30 | 0.00 | 92 | 1021.9 |
| 20260901115056 | 16 | 0 | 0.0 | 3.2 | 0.00 | 0.30 | 0.00 | 92 | 1021.8 |
| 20260901114603 | 16 | 44 | 0.0 | 3.2 | 0.00 | 0.30 | 0.00 | 92 | 1021.8 |
| 20260901114053 | 16 | 0 | 0.0 | 1.6 | 0.00 | 0.30 | 0.00 | 92 | 1021.8 |
| 20260901113554 | 16 | 0 | 0.0 | 1.6 | 0.00 | 0.30 | 0.00 | 92 | 1021.8 |
| 20260901113106 | 16 | 0 | 0.0 | 3.2 | 0.00 | 0.30 | 0.00 | 92 | 1021.7 |
| 20260901112554 | 16 | 0 | 0.0 | 6.4 | 0.00 | 0.30 | 0.00 | 92 | 1021.7 |
| 20260901112056 | 16 | 44 | 1.6 | 6.4 | 0.00 | 0.30 | 0.00 | 92 | 1021.8 |
| 20260901111603 | 16 | 44 | 3.2 | 6.4 | 0.00 | 0.30 | 0.00 | 92 | 1021.9 |
| 20260901111054 | 16 | 44 | 0.0 | 3.2 | 0.00 | 0.30 | 0.00 | 92 | 1021.9 |
| 20260901110553 | 16 | 0 | 0.0 | 4.8 | 0.00 | 0.30 | 0.00 | 92 | 1021.8 |
| 20260901110100 | 16 | 44 | 1.6 | 4.8 | 0.00 | 0.30 | 0.00 | 92 | 1021.9 |
| 20260901105554 | 16 | 44 | 1.6 | 4.8 | 0.00 | 0.33 | 0.00 | 92 | 1021.9 |
| 20260901105058 | 16 | 0 | 0.0 | 3.2 | 0.00 | 0.33 | 0.00 | 92 | 1021.9 |
| 20260901104609 | 16 | 44 | 1.6 | 3.2 | 0.00 | 0.33 | 0.00 | 92 | 1021.9 |
| 20260901104055 | 17 | 0 | 0.0 | 3.2 | 0.00 | 0.33 | 0.00 | 92 | 1021.9 |
| 20260901103553 | 17 | 44 | 0.0 | 3.2 | 0.00 | 0.33 | 0.00 | 92 | 1022.0 |
| 20260901103102 | 17 | 0 | 0.0 | 0.0 | 0.00 | 0.33 | 0.00 | 92 | 1022.0 |
| 20260901102554 | 17 | 0 | 0.0 | 0.0 | 0.00 | 0.33 | 0.00 | 92 | 1022.0 |
| 20260901102054 | 17 | 0 | 0.0 | 1.6 | 0.00 | 0.33 | 0.00 | 92 | 1021.9 |
| 20260901101611 | 17 | 0 | 0.0 | 3.2 | 0.00 | 0.33 | 0.00 | 92 | 1022.0 |
| 20260901101054 | 17 | 0 | 0.0 | 3.2 | 0.00 | 0.33 | 0.00 | 92 | 1022.0 |
| 20260901100558 | 17 | 0 | 0.0 | 3.2 | 0.00 | 0.33 | 0.00 | 92 | 1022.0 |
| 20260901100105 | 17 | 44 | 0.0 | 3.2 | 0.00 | 0.33 | 0.00 | 92 | 1021.9 |
| 20260901095553 | 17 | 0 | 1.6 | 3.2 | 0.00 | 0.38 | 0.00 | 91 | 1022.0 |
| 20260901095053 | 17 | 44 | 0.0 | 1.6 | 0.00 | 0.38 | 0.00 | 92 | 1022.1 |
| 20260901094601 | 17 | 44 | 0.0 | 0.0 | 0.00 | 0.38 | 0.00 | 92 | 1022.0 |
| 20260901094054 | 17 | 0 | 0.0 | 0.0 | 0.00 | 0.38 | 0.00 | 92 | 1022.0 |
| 20260901093558 | 17 | 0 | 0.0 | 0.0 | 0.00 | 0.38 | 0.00 | 92 | 1022.0 |
| 20260901093108 | 17 | 0 | 0.0 | 0.0 | 0.00 | 0.38 | 0.00 | 92 | 1022.1 |
| 20260901092554 | 17 | 0 | 0.0 | 0.0 | 0.00 | 0.38 | 0.00 | 92 | 1022.2 |
| 20260901092056 | 17 | 0 | 0.0 | 0.0 | 0.00 | 0.38 | 0.00 | 92 | 1022.2 |
| 20260901091627 | 17 | 0 | 0.0 | 0.0 | 0.00 | 0.38 | 0.00 | 92 | 1022.1 |
| 20260901091053 | 18 | 0 | 0.0 | 0.0 | 0.00 | 0.38 | 0.00 | 92 | 1022.3 |
| 20260901090553 | 18 | 0 | 0.0 | 0.0 | 0.00 | 0.38 | 0.00 | 92 | 1022.1 |
| 20260901085553 | 18 | 0 | 0.0 | 0.0 | 0.00 | 0.53 | 0.00 | 92 | 1022.1 |
| 20260901085053 | 18 | 0 | 0.0 | 0.0 | 0.00 | 0.53 | 0.00 | 92 | 1022.1 |
| 20260901084557 | 18 | 0 | 0.0 | 3.2 | 0.00 | 0.53 | 0.00 | 91 | 1022.1 |
| 20260901084056 | 18 | 0 | 0.0 | 4.8 | 0.00 | 0.53 | 0.00 | 91 | 1022.1 |
| 20260901083555 | 18 | 44 | 0.0 | 4.8 | 0.00 | 0.53 | 0.00 | 92 | 1022.1 |
| 20260901083107 | 18 | 44 | 0.0 | 3.2 | 0.00 | 0.53 | 0.00 | 92 | 1022.1 |
| 20260901082553 | 18 | 44 | 0.0 | 3.2 | 0.00 | 0.53 | 0.00 | 92 | 1022.1 |
| 20260901082054 | 18 | 44 | 0.0 | 4.8 | 0.00 | 0.53 | 0.00 | 91 | 1022.1 |
| 20260901081602 | 18 | 0 | 1.6 | 4.8 | 0.00 | 0.53 | 0.00 | 91 | 1022.2 |
| 20260901081053 | 18 | 44 | 1.6 | 4.8 | 0.00 | 0.53 | 0.00 | 91 | 1022.2 |
| 20260901080553 | 18 | 44 | 0.0 | 1.6 | 0.00 | 0.53 | 0.00 | 91 | 1022.2 |
| 20260901080104 | 18 | 0 | 0.0 | 0.0 | 0.00 | 0.53 | 0.00 | 91 | 1022.2 |
| 20260901075555 | 18 | 0 | 0.0 | 0.0 | 0.00 | 0.53 | 0.00 | 91 | 1022.3 |
| 20260901075054 | 18 | 0 | 0.0 | 0.0 | 0.00 | 0.53 | 0.00 | 91 | 1022.3 |
| 20260901074622 | 18 | 0 | 0.0 | 3.2 | 0.00 | 0.53 | 0.00 | 91 | 1022.2 |
| 20260901074054 | 18 | 0 | 0.0 | 3.2 | 0.00 | 0.53 | 0.00 | 91 | 1022.3 |
| 20260901073556 | 18 | 0 | 0.0 | 0.0 | 0.00 | 0.53 | 0.00 | 91 | 1022.4 |
| 20260901073110 | 18 | 0 | 0.0 | 0.0 | 0.00 | 0.53 | 0.00 | 91 | 1022.3 |
| 20260901072554 | 18 | 0 | 0.0 | 0.0 | 0.00 | 0.53 | 0.00 | 91 | 1022.4 |
| 20260901072056 | 18 | 0 | 0.0 | 0.0 | 0.00 | 0.53 | 0.00 | 91 | 1022.4 |
| 20260901071601 | 18 | 0 | 0.0 | 0.0 | 0.00 | 0.53 | 0.00 | 91 | 1022.4 |
| 20260901071056 | 18 | 0 | 0.0 | 1.6 | 0.00 | 0.53 | 0.00 | 91 | 1022.4 |
| 20260901070555 | 18 | 0 | 0.0 | 1.6 | 0.00 | 0.53 | 0.00 | 91 | 1022.4 |
| 20260901070113 | 18 | 0 | 0.0 | 3.2 | 0.00 | 0.53 | 0.00 | 90 | 1022.4 |
| 20260901065556 | 18 | 0 | 0.0 | 3.2 | 0.00 | 0.53 | 0.53 | 90 | 1022.3 |
| 20260901065056 | 18 | 44 | 0.0 | 3.2 | 0.00 | 0.53 | 0.53 | 91 | 1022.2 |
| 20260901064603 | 18 | 44 | 1.6 | 4.8 | 0.00 | 0.53 | 0.53 | 90 | 1022.3 |
| 20260901064055 | 18 | 44 | 0.0 | 6.4 | 0.00 | 0.53 | 0.53 | 90 | 1022.4 |
| 20260901063555 | 18 | 44 | 3.2 | 11.3 | 0.00 | 0.53 | 0.53 | 90 | 1022.4 |
| 20260901063131 | 18 | 44 | 4.8 | 11.3 | 0.00 | 0.53 | 0.53 | 90 | 1022.5 |
| 20260901062555 | 18 | 60 | 1.6 | 9.7 | 0.00 | 0.53 | 0.53 | 89 | 1022.6 |
| 20260901062055 | 18 | 0 | 0.0 | 1.6 | 0.00 | 0.53 | 0.53 | 90 | 1022.5 |
| 20260901061601 | 18 | 0 | 0.0 | 1.6 | 0.00 | 0.53 | 0.53 | 89 | 1022.6 |
| 20260901061055 | 18 | 0 | 0.0 | 1.6 | 0.00 | 0.53 | 0.53 | 89 | 1022.5 |
| 20260901060600 | 18 | 0 | 0.0 | 3.2 | 0.00 | 0.53 | 0.53 | 89 | 1022.6 |
| 20260901060109 | 18 | 60 | 0.0 | 3.2 | 0.00 | 0.53 | 0.53 | 89 | 1022.8 |
| 20260901055556 | 19 | 0 | 0.0 | 3.2 | 0.00 | 0.53 | 0.53 | 89 | 1022.8 |
| 20260901055059 | 19 | 0 | 0.0 | 0.0 | 0.00 | 0.53 | 0.53 | 89 | 1022.9 |
| 20260901054603 | 19 | 0 | 0.0 | 0.0 | 0.00 | 0.53 | 0.53 | 89 | 1022.9 |
| 20260901054056 | 19 | 0 | 0.0 | 0.0 | 0.00 | 0.53 | 0.53 | 89 | 1022.9 |
| 20260901053553 | 19 | 0 | 0.0 | 0.0 | 0.00 | 0.53 | 0.53 | 88 | 1022.8 |
| 20260901053122 | 19 | 0 | 0.0 | 0.0 | 0.00 | 0.53 | 0.53 | 88 | 1022.9 |
| 20260901052555 | 20 | 0 | 0.0 | 0.0 | 0.00 | 0.53 | 0.53 | 88 | 1022.9 |
| 20260901052054 | 20 | 0 | 0.0 | 0.0 | 0.00 | 0.53 | 0.53 | 88 | 1022.8 |
| 20260901051616 | 20 | 0 | 0.0 | 0.0 | 0.00 | 0.53 | 0.53 | 87 | 1022.8 |
| 20260901051054 | 20 | 0 | 0.0 | 1.6 | 0.00 | 0.53 | 0.53 | 87 | 1022.8 |
| 20260901050554 | 20 | 0 | 0.0 | 1.6 | 0.00 | 0.53 | 0.53 | 87 | 1022.8 |
| 20260901050104 | 20 | 0 | 0.0 | 1.6 | 0.00 | 0.53 | 0.53 | 87 | 1022.9 |
| 20260901045558 | 20 | 0 | 0.0 | 3.2 | 0.00 | 0.53 | 0.53 | 87 | 1022.9 |
| 20260901045055 | 20 | 0 | 0.0 | 6.4 | 0.00 | 0.53 | 0.53 | 86 | 1022.9 |
| 20260901044602 | 20 | 60 | 1.6 | 6.4 | 0.00 | 0.53 | 0.53 | 86 | 1023.0 |
| 20260901044054 | 20 | 60 | 0.0 | 4.8 | 0.00 | 0.53 | 0.53 | 86 | 1023.1 |
| 20260901043556 | 20 | 0 | 0.0 | 6.4 | 0.00 | 0.53 | 0.53 | 85 | 1023.1 |
| 20260901043106 | 20 | 60 | 1.6 | 9.7 | 0.00 | 0.53 | 0.53 | 85 | 1023.1 |
| 20260901042557 | 20 | 59 | 4.8 | 9.7 | 0.00 | 0.53 | 0.53 | 84 | 1022.9 |
| 20260901042057 | 20 | 65 | 4.8 | 8.0 | 0.00 | 0.53 | 0.53 | 84 | 1022.9 |
| 20260901041611 | 20 | 85 | 1.6 | 4.8 | 0.00 | 0.53 | 0.53 | 83 | 1022.9 |
| 20260901041056 | 20 | 0 | 0.0 | 4.8 | 0.00 | 0.53 | 0.53 | 82 | 1022.9 |
| 20260901040554 | 20 | 120 | 0.0 | 1.6 | 0.00 | 0.53 | 0.53 | 82 | 1022.8 |
| 20260901040106 | 20 | 0 | 0.0 | 4.8 | 0.00 | 0.53 | 0.53 | 81 | 1022.7 |
| 20260901035556 | 20 | 0 | 0.0 | 11.3 | 0.00 | 0.53 | 0.53 | 81 | 1022.3 |
| 20260901035056 | 20 | 120 | 3.2 | 11.3 | 0.00 | 0.53 | 0.53 | 82 | 1022.2 |
| 20260901034602 | 20 | 106 | 4.8 | 11.3 | 0.00 | 0.53 | 0.53 | 82 | 1022.0 |
| 20260901034053 | 20 | 0 | 3.2 | 9.7 | 0.00 | 0.53 | 0.53 | 83 | 1022.0 |
| 20260901033553 | 20 | 174 | 3.2 | 4.8 | 0.00 | 0.53 | 0.53 | 84 | 1022.0 |
| 20260901033101 | 20 | 181 | 1.6 | 4.8 | 0.00 | 0.53 | 0.53 | 83 | 1021.9 |
| 20260901032557 | 20 | 181 | 3.2 | 4.8 | 0.00 | 0.53 | 0.53 | 83 | 1022.0 |
| 20260901032055 | 20 | 181 | 3.2 | 4.8 | 0.00 | 0.53 | 0.53 | 82 | 1022.1 |
| 20260901031615 | 20 | 181 | 1.6 | 4.8 | 0.00 | 0.53 | 0.53 | 83 | 1022.0 |
| 20260901031055 | 20 | 181 | 1.6 | 6.4 | 0.00 | 0.53 | 0.53 | 83 | 1021.9 |
| 20260901030553 | 20 | 181 | 3.2 | 9.7 | 0.00 | 0.53 | 0.53 | 83 | 1021.9 |
| 20260901030105 | 20 | 181 | 3.2 | 9.7 | 0.00 | 0.53 | 0.53 | 83 | 1021.9 |
| 20260901025555 | 20 | 181 | 0.0 | 6.4 | 0.00 | 0.53 | 0.53 | 83 | 1021.9 |
| 20260901025056 | 20 | 0 | 0.0 | 6.4 | 0.00 | 0.53 | 0.53 | 83 | 1021.8 |
| 20260901024600 | 20 | 181 | 3.2 | 9.7 | 0.00 | 0.53 | 0.53 | 84 | 1021.7 |
| 20260901024055 | 20 | 182 | 1.6 | 9.7 | 0.00 | 0.53 | 0.53 | 84 | 1021.6 |
| 20260901023554 | 20 | 188 | 4.8 | 8.0 | 0.00 | 0.53 | 0.53 | 84 | 1021.6 |
| 20260901023105 | 21 | 249 | 1.6 | 4.8 | 0.00 | 0.53 | 0.53 | 85 | 1021.5 |
| 20260901022554 | 21 | 0 | 0.0 | 1.6 | 0.00 | 0.53 | 0.53 | 85 | 1021.3 |
| 20260901022056 | 21 | 0 | 0.0 | 1.6 | 0.00 | 0.53 | 0.53 | 84 | 1021.1 |
| 20260901021602 | 21 | 0 | 0.0 | 0.0 | 0.00 | 0.53 | 0.53 | 84 | 1021.1 |
| 20260901021055 | 21 | 0 | 0.0 | 0.0 | 0.00 | 0.53 | 0.53 | 83 | 1021.0 |
| 20260901020552 | 21 | 0 | 0.0 | 1.6 | 0.00 | 0.53 | 0.53 | 83 | 1021.0 |
| 20260901020104 | 21 | 0 | 0.0 | 1.6 | 0.00 | 0.53 | 0.53 | 82 | 1020.9 |
| 20260901015554 | 21 | 0 | 0.0 | 1.6 | 0.00 | 0.53 | 0.53 | 82 | 1020.7 |
| 20260901015053 | 21 | 0 | 0.0 | 1.6 | 0.00 | 0.53 | 0.53 | 81 | 1020.7 |
| 20260901014602 | 21 | 249 | 0.0 | 1.6 | 0.00 | 0.53 | 0.53 | 81 | 1020.5 |
| 20260901014055 | 21 | 0 | 0.0 | 1.6 | 0.00 | 0.53 | 0.53 | 80 | 1020.5 |
| 20260901013555 | 21 | 0 | 0.0 | 0.0 | 0.00 | 0.53 | 0.53 | 80 | 1020.4 |
| 20260901013101 | 20 | 0 | 0.0 | 0.0 | 0.00 | 0.53 | 0.53 | 79 | 1020.4 |
| 20260901012554 | 20 | 0 | 0.0 | 0.0 | 0.00 | 0.53 | 0.53 | 79 | 1020.4 |
| 20260901012055 | 21 | 0 | 0.0 | 0.0 | 0.00 | 0.53 | 0.53 | 80 | 1020.2 |
| 20260901011602 | 21 | 0 | 0.0 | 1.6 | 0.00 | 0.53 | 0.53 | 80 | 1020.3 |
| 20260901011054 | 21 | 0 | 0.0 | 1.6 | 0.00 | 0.53 | 0.53 | 79 | 1020.4 |
| 20260901010559 | 21 | 0 | 0.0 | 1.6 | 0.00 | 0.53 | 0.53 | 78 | 1020.5 |
| 20260901010101 | 21 | 0 | 0.0 | 0.0 | 0.00 | 0.53 | 0.53 | 78 | 1020.4 |
| 20260901005555 | 21 | 0 | 0.0 | 0.0 | 0.00 | 0.53 | 0.53 | 78 | 1020.3 |
| 20260901005055 | 21 | 0 | 0.0 | 0.0 | 0.00 | 0.53 | 0.53 | 77 | 1020.3 |
| 20260901004609 | 21 | 0 | 0.0 | 0.0 | 0.00 | 0.53 | 0.53 | 77 | 1020.3 |
| 20260901004051 | 20 | 0 | 0.0 | 0.0 | 0.00 | 0.53 | 0.53 | 76 | 1020.2 |
| 20260901003552 | 20 | 0 | 0.0 | 0.0 | 0.00 | 0.53 | 0.53 | 74 | 1020.2 |
| 20260901003101 | 20 | 0 | 0.0 | 0.0 | 0.00 | 0.53 | 0.53 | 76 | 1020.2 |
| 20260901002556 | 20 | 0 | 0.0 | 0.0 | 0.00 | 0.53 | 0.53 | 78 | 1020.0 |
| 20260901002054 | 20 | 0 | 0.0 | 0.0 | 0.00 | 0.53 | 0.53 | 78 | 1020.0 |
| 20260901001608 | 20 | 0 | 0.0 | 0.0 | 0.00 | 0.53 | 0.53 | 78 | 1020.0 |
| 20260901001052 | 20 | 0 | 0.0 | 0.0 | 0.00 | 0.53 | 0.53 | 79 | 1020.1 |
| 20260901000552 | 20 | 0 | 0.0 | 0.0 | 0.00 | 0.53 | 0.53 | 80 | 1020.1 |
| 20260901000111 | 20 | 0 | 0.0 | 1.6 | 0.00 | 0.53 | 0.53 | 82 | 1020.2 |
| 20260831235557 | 20 | 0 | 0.0 | 1.6 | 0.03 | 0.53 | 0.53 | 83 | 1020.3 |
| 20260831235055 | 20 | 0 | 0.0 | 1.6 | 0.03 | 0.53 | 0.53 | 84 | 1020.5 |
| 20260831234628 | 20 | 0 | 0.0 | 0.0 | 0.03 | 0.53 | 0.53 | 84 | 1020.5 |
| 20260831234052 | 20 | 0 | 0.0 | 0.0 | 0.03 | 0.53 | 0.53 | 85 | 1020.7 |
| 20260831233556 | 20 | 0 | 0.0 | 1.6 | 0.03 | 0.53 | 0.53 | 85 | 1020.7 |
| 20260831233120 | 20 | 0 | 0.0 | 4.8 | 0.03 | 0.53 | 0.53 | 86 | 1020.9 |
| 20260831232553 | 20 | 0 | 0.0 | 6.4 | 0.05 | 0.53 | 0.53 | 85 | 1020.9 |
| 20260831232054 | 20 | 0 | 0.0 | 6.4 | 0.05 | 0.53 | 0.53 | 85 | 1020.8 |
| 20260831231556 | 20 | 293 | 0.0 | 4.8 | 0.08 | 0.53 | 0.53 | 86 | 1020.9 |
| 20260831231052 | 20 | 0 | 0.0 | 3.2 | 0.08 | 0.53 | 0.53 | 85 | 1020.8 |
| 20260831230556 | 19 | 0 | 0.0 | 1.6 | 0.08 | 0.53 | 0.53 | 85 | 1020.7 |
| 20260831230107 | 19 | 0 | 0.0 | 6.4 | 0.08 | 0.53 | 0.53 | 83 | 1020.7 |
| 20260831225552 | 19 | 0 | 0.0 | 9.7 | 0.05 | 0.51 | 0.51 | 83 | 1020.6 |
| 20260831225051 | 19 | 307 | 0.0 | 9.7 | 0.05 | 0.51 | 0.51 | 83 | 1020.9 |
| 20260831224604 | 19 | 293 | 4.8 | 9.7 | 0.05 | 0.51 | 0.51 | 82 | 1021.1 |
| 20260831224058 | 19 | 307 | 4.8 | 12.9 | 0.05 | 0.51 | 0.51 | 80 | 1021.2 |
| 20260831223555 | 20 | 299 | 4.8 | 12.9 | 0.05 | 0.51 | 0.51 | 80 | 1021.4 |
| 20260831223108 | 20 | 293 | 8.0 | 17.7 | 0.05 | 0.51 | 0.51 | 78 | 1021.7 |
| 20260831222552 | 20 | 311 | 9.7 | 19.3 | 0.03 | 0.48 | 0.48 | 76 | 1021.9 |
| 20260831222054 | 20 | 302 | 11.3 | 24.1 | 0.03 | 0.48 | 0.48 | 73 | 1022.2 |
| 20260831221603 | 21 | 294 | 14.5 | 25.7 | 0.00 | 0.46 | 0.46 | 70 | 1022.4 |
| 20260831221053 | 21 | 281 | 16.1 | 32.2 | 0.00 | 0.46 | 0.46 | 68 | 1022.4 |
| 20260831220558 | 21 | 297 | 17.7 | 32.2 | 0.00 | 0.46 | 0.46 | 66 | 1022.5 |
| 20260831215554 | 21 | 311 | 17.7 | 32.2 | 0.00 | 0.46 | 0.46 | 65 | 1022.6 |
| 20260831215053 | 21 | 336 | 19.3 | 35.4 | 0.00 | 0.46 | 0.46 | 65 | 1022.7 |
| 20260831214608 | 21 | 274 | 24.1 | 38.6 | 0.00 | 0.46 | 0.46 | 64 | 1022.8 |
| 20260831214055 | 22 | 307 | 22.5 | 38.6 | 0.00 | 0.46 | 0.46 | 65 | 1022.9 |
| 20260831213558 | 22 | 258 | 20.9 | 38.6 | 0.00 | 0.46 | 0.46 | 65 | 1022.9 |
| 20260831213104 | 22 | 290 | 22.5 | 38.6 | 0.00 | 0.46 | 0.46 | 67 | 1022.9 |
| 20260831212553 | 22 | 318 | 19.3 | 37.0 | 0.00 | 0.46 | 0.46 | 66 | 1023.0 |
| 20260831212057 | 22 | 318 | 20.9 | 37.0 | 0.00 | 0.46 | 0.46 | 66 | 1023.1 |
| 20260831211606 | 22 | 274 | 25.7 | 37.0 | 0.00 | 0.46 | 0.46 | 66 | 1023.0 |
| 20260831211052 | 23 | 339 | 22.5 | 37.0 | 0.00 | 0.46 | 0.46 | 66 | 1023.2 |
| 20260831210554 | 23 | 294 | 17.7 | 37.0 | 0.00 | 0.46 | 0.46 | 68 | 1023.2 |
| 20260831210058 | 23 | 271 | 20.9 | 33.8 | 0.00 | 0.46 | 0.46 | 68 | 1023.1 |
| 20260831205556 | 23 | 290 | 19.3 | 29.0 | 0.00 | 0.46 | 0.46 | 67 | 1023.1 |
| 20260831205058 | 23 | 287 | 17.7 | 29.0 | 0.00 | 0.46 | 0.46 | 66 | 1023.1 |
| 20260831204629 | 23 | 281 | 12.9 | 27.4 | 0.00 | 0.46 | 0.46 | 68 | 1023.2 |
| 20260831204053 | 23 | 321 | 12.9 | 27.4 | 0.00 | 0.46 | 0.46 | 69 | 1023.1 |
| 20260831203555 | 23 | 245 | 11.3 | 27.4 | 0.00 | 0.46 | 0.46 | 69 | 1023.3 |
| 20260831203121 | 24 | 278 | 14.5 | 27.4 | 0.00 | 0.46 | 0.46 | 68 | 1023.4 |
| 20260831202554 | 25 | 288 | 11.3 | 20.9 | 0.00 | 0.46 | 0.46 | 64 | 1023.4 |
| 20260831202055 | 25 | 285 | 11.3 | 20.9 | 0.00 | 0.46 | 0.46 | 62 | 1023.4 |
| 20260831201604 | 25 | 283 | 9.7 | 19.3 | 0.00 | 0.46 | 0.46 | 62 | 1023.4 |
| 20260831201055 | 25 | 1 | 4.8 | 14.5 | 0.00 | 0.46 | 0.46 | 64 | 1023.1 |
| 20260831200556 | 24 | 316 | 6.4 | 14.5 | 0.00 | 0.46 | 0.46 | 65 | 1023.2 |
| 20260831200104 | 24 | 278 | 6.4 | 12.9 | 0.00 | 0.46 | 0.46 | 64 | 1023.2 |
| 20260831195555 | 24 | 351 | 4.8 | 9.7 | 0.00 | 0.46 | 0.46 | 66 | 1023.2 |
| 20260831195054 | 23 | 358 | 4.8 | 9.7 | 0.00 | 0.46 | 0.46 | 66 | 1023.2 |
| 20260831194606 | 23 | 331 | 3.2 | 11.3 | 0.00 | 0.46 | 0.46 | 66 | 1023.5 |
| 20260831194055 | 23 | 333 | 4.8 | 11.3 | 0.00 | 0.46 | 0.46 | 68 | 1023.6 |
| 20260831193555 | 23 | 304 | 6.4 | 11.3 | 0.00 | 0.46 | 0.46 | 69 | 1023.7 |
| 20260831193101 | 23 | 308 | 3.2 | 9.7 | 0.00 | 0.46 | 0.46 | 69 | 1023.7 |
| 20260831192554 | 23 | 328 | 1.6 | 8.0 | 0.00 | 0.46 | 0.46 | 69 | 1023.8 |
| 20260831192055 | 23 | 305 | 3.2 | 11.3 | 0.00 | 0.46 | 0.46 | 68 | 1023.7 |
| 20260831191600 | 23 | 340 | 3.2 | 17.7 | 0.00 | 0.46 | 0.46 | 69 | 1023.6 |
| 20260831191055 | 23 | 317 | 4.8 | 17.7 | 0.00 | 0.46 | 0.46 | 70 | 1023.5 |
| 20260831190553 | 23 | 327 | 4.8 | 17.7 | 0.00 | 0.46 | 0.46 | 71 | 1023.5 |
| 20260831190107 | 23 | 354 | 4.8 | 11.3 | 0.00 | 0.46 | 0.46 | 72 | 1023.5 |
| 20260831185555 | 23 | 359 | 6.4 | 12.9 | 0.00 | 0.46 | 0.46 | 71 | 1023.4 |
| 20260831185054 | 23 | 348 | 4.8 | 12.9 | 0.00 | 0.46 | 0.46 | 72 | 1023.4 |
| 20260831184601 | 23 | 355 | 4.8 | 12.9 | 0.00 | 0.46 | 0.46 | 75 | 1023.4 |
| 20260831184055 | 23 | 324 | 6.4 | 12.9 | 0.00 | 0.46 | 0.46 | 75 | 1023.5 |
| 20260831183554 | 22 | 1 | 6.4 | 11.3 | 0.00 | 0.46 | 0.46 | 75 | 1023.5 |
| 20260831183104 | 22 | 360 | 4.8 | 9.7 | 0.00 | 0.46 | 0.46 | 76 | 1023.5 |
| 20260831182554 | 22 | 352 | 4.8 | 9.7 | 0.00 | 0.46 | 0.46 | 74 | 1023.5 |
| 20260831182055 | 22 | 358 | 3.2 | 9.7 | 0.00 | 0.46 | 0.46 | 74 | 1023.5 |
| 20260831181559 | 22 | 345 | 3.2 | 9.7 | 0.00 | 0.46 | 0.46 | 75 | 1023.6 |
| 20260831181055 | 22 | 302 | 3.2 | 9.7 | 0.00 | 0.46 | 0.46 | 76 | 1023.6 |
| 20260831180555 | 22 | 300 | 3.2 | 9.7 | 0.00 | 0.46 | 0.46 | 78 | 1023.7 |
| 20260831180104 | 22 | 307 | 4.8 | 9.7 | 0.00 | 0.46 | 0.46 | 78 | 1023.8 |
| 20260831175555 | 22 | 324 | 3.2 | 8.0 | 0.00 | 0.46 | 0.46 | 80 | 1023.7 |
| 20260831175054 | 22 | 319 | 3.2 | 9.7 | 0.00 | 0.46 | 0.46 | 81 | 1023.7 |
| 20260831174610 | 21 | 317 | 3.2 | 9.7 | 0.00 | 0.46 | 0.46 | 81 | 1023.9 |
| 20260831174053 | 21 | 314 | 3.2 | 9.7 | 0.00 | 0.46 | 0.46 | 82 | 1024.0 |
| 20260831173555 | 21 | 338 | 3.2 | 9.7 | 0.00 | 0.46 | 0.46 | 82 | 1024.1 |
| 20260831173103 | 21 | 347 | 4.8 | 9.7 | 0.00 | 0.46 | 0.46 | 83 | 1024.3 |
| 20260831172553 | 21 | 342 | 1.6 | 8.0 | 0.00 | 0.46 | 0.46 | 83 | 1024.3 |
| 20260831172055 | 21 | 359 | 3.2 | 8.0 | 0.00 | 0.46 | 0.46 | 85 | 1024.2 |
| 20260831171603 | 21 | 1 | 0.0 | 6.4 | 0.00 | 0.46 | 0.46 | 85 | 1024.1 |
| 20260831171055 | 21 | 321 | 3.2 | 6.4 | 0.00 | 0.46 | 0.46 | 86 | 1024.0 |
| 20260831170555 | 21 | 298 | 1.6 | 6.4 | 0.00 | 0.46 | 0.46 | 87 | 1023.8 |
| 20260831170104 | 20 | 335 | 0.0 | 4.8 | 0.00 | 0.46 | 0.46 | 88 | 1023.8 |
| 20260831165554 | 20 | 335 | 0.0 | 4.8 | 0.00 | 0.46 | 0.46 | 88 | 1023.8 |
| 20260831165055 | 20 | 335 | 1.6 | 6.4 | 0.00 | 0.46 | 0.46 | 89 | 1023.7 |
| 20260831164606 | 20 | 335 | 1.6 | 6.4 | 0.00 | 0.46 | 0.46 | 89 | 1023.7 |
| 20260831164054 | 20 | 338 | 1.6 | 4.8 | 0.00 | 0.46 | 0.46 | 89 | 1023.5 |
| 20260831163555 | 20 | 341 | 0.0 | 4.8 | 0.00 | 0.46 | 0.46 | 90 | 1023.5 |
| 20260831163105 | 20 | 341 | 0.0 | 4.8 | 0.00 | 0.46 | 0.46 | 90 | 1023.2 |
| 20260831162555 | 20 | 0 | 0.0 | 0.0 | 0.00 | 0.46 | 0.46 | 91 | 1023.2 |
| 20260831162054 | 20 | 0 | 0.0 | 4.8 | 0.00 | 0.46 | 0.46 | 91 | 1023.0 |
| 20260831161610 | 20 | 0 | 0.0 | 4.8 | 0.03 | 0.46 | 0.46 | 90 | 1023.1 |
| 20260831161054 | 20 | 359 | 1.6 | 4.8 | 0.03 | 0.46 | 0.46 | 90 | 1023.2 |
| 20260831160551 | 20 | 359 | 0.0 | 6.4 | 0.05 | 0.46 | 0.46 | 91 | 1023.2 |
| 20260831160109 | 19 | 0 | 1.6 | 6.4 | 0.05 | 0.46 | 0.46 | 90 | 1023.2 |
| 20260831155555 | 19 | 359 | 1.6 | 4.8 | 0.08 | 0.46 | 0.46 | 90 | 1023.2 |